Vorticity
3 7 8 9 4 16 7 6 6 4 9 5 -2 7 5 7 9 7 8 8 6 6 7 8 7 5 5 6 5 4 3 4 5 5 5 6 6 5 5 4 4 4 5
16 7 8 8 9 10 13 -1 12 13 -3 -11 7 -5 6 5 11 10 9 8 7 6 8 8 7 5 5 5 5 5 5 5 5 5 6 6 6 6 6 5 4 5 5
15 22 15 14 10 10 6 10 7 -4 10 7 14 15 2 4 12 9 8 8 6 7 8 7 6 7 6 5 5 5 6 6 6 6 5 8 7 7 6 6 5 4 5
-1 10 8 12 10 12 17 0 10 32 -5 31 3 35 4 7 -2 12 12 10 7 6 7 7 7 6 6 4 4 5 6 6 6 6 6 7 7 6 6 6 6 5 5
-5 9 10 9 6 18 11 14 5 5 9 -4 5 19 42 -11 20 15 11 11 9 7 7 7 5 5 5 4 5 6 6 6 6 6 6 6 6 6 7 6 6 5 5
9 4 -7 14 11 10 21 15 15 15 14 -14 34 8 5 28 1 13 9 11 9 9 8 6 6 5 4 6 7 6 4 5 6 6 6 6 6 7 6 7 6 6 5
19 5 24 -0 8 7 11 15 11 13 19 5 -1 19 1 -0 21 9 16 7 11 8 8 7 5 5 5 4 5 5 5 5 4 5 5 6 6 6 7 6 6 5 6
28 32 29 3 2 -1 7 5 11 10 20 24 12 0 12 1 14 -4 -18 -8 7 14 11 9 7 5 5 4 4 5 5 5 5 5 5 6 6 6 7 7 7 6 6
15 9 20 17 30 0 2 5 5 13 24 9 5 27 -4 19 1 -6 29 15 14 7 10 11 8 6 5 5 5 5 5 5 5 5 6 6 7 7 7 7 7 7 6
22 3 -0 13 11 32 5 3 7 14 10 19 13 6 16 4 19 32 -19 7 12 10 8 10 8 6 6 5 4 4 5 5 5 5 6 7 7 7 7 8 6 6 6
-7 11 26 6 4 23 28 7 4 9 16 12 17 9 3 19 14 9 31 14 36 11 6 8 9 8 7 5 6 4 3 4 5 5 6 6 7 7 7 7 8 5 7
26 0 10 16 14 6 20 21 4 0 9 10 28 12 6 9 2 6 16 -8 22 5 9 9 8 8 7 6 3 3 3 3 4 6 6 6 7 7 8 7 7 5 6
16 11 8 9 3 13 4 12 13 11 12 6 15 8 17 13 4 14 19 2 51 5 3 8 9 8 7 6 6 4 5 4 4 5 6 7 7 7 7 7 6 5 7
13 17 12 11 15 11 12 9 13 11 11 12 15 6 -1 21 5 20 2 35 2 7 8 8 8 7 7 6 5 5 6 5 4 5 6 6 7 7 6 5 5 6 6
1 26 33 7 8 8 5 18 12 12 12 15 8 9 7 4 20 21 12 -5 29 44 10 8 7 5 5 5 6 6 5 6 7 5 6 6 6 2 6 8 7 7 6
-6 17 19 15 -1 6 15 10 14 13 8 13 14 9 8 8 -5 21 24 11 15 9 12 5 10 7 5 6 5 5 6 6 6 7 6 7 4 6 7 6 7 6 6
18 1 21 14 5 25 -0 11 9 17 11 17 22 10 12 4 13 17 10 32 17 11 6 7 7 9 7 7 6 6 6 5 6 5 5 3 5 7 8 7 6 5 6
6 10 9 25 25 25 24 20 12 8 15 21 25 10 11 5 -15 25 17 24 4 10 16 5 6 4 6 9 6 5 6 7 6 5 7 6 6 6 5 6 6 5 7
12 9 15 14 22 15 19 22 10 4 30 28 17 12 5 6 11 28 14 9 10 11 4 2 -2 6 6 4 6 7 8 6 8 1 8 3 3 4 5 2 5 7 9
8 2 4 14 22 17 22 6 38 11 4 25 23 5 16 11 -1 41 24 11 3 -8 -2 17 8 -6 6 12 6 5 5 5 3 6 4 7 6 7 10 7 8 9 10
4 21 8 7 15 12 15 30 6 7 6 7 14 20 15 19 8 -21 31 37 6 3 15 -4 16 19 6 4 2 4 3 4 2 7 6 7 10 12 8 9 10 11 14
5 15 2 1 7 8 23 23 6 -0 11 17 27 25 7 9 18 20 2 20 11 3 11 9 4 -2 8 -1 10 1 6 2 12 8 8 13 10 8 8 10 12 11 9
7 14 6 3 15 15 7 18 5 25 0 18 16 10 6 15 7 -8 13 32 19 8 3 29 -2 -5 8 17 -4 15 2 8 8 9 15 9 8 10 12 11 9 9 9
10 12 15 5 5 14 18 6 33 8 19 8 5 12 14 7 6 14 14 33 4 20 -0 37 7 8 17 -1 8 5 11 8 11 10 8 9 11 12 10 9 9 9 9
13 11 4 13 24 11 12 13 14 10 11 19 2 12 7 7 19 23 33 23 18 37 16 31 6 22 6 1 5 8 9 15 10 8 9 12 11 9 9 10 9 12 14
10 6 6 18 17 15 15 14 20 20 16 16 16 13 16 20 13 23 42 29 38 25 17 13 15 6 1 5 9 14 11 7 8 11 13 10 8 9 10 10 12 11 9
Height
3030 3035 3041 3047 3053 3058 3064 3070 3076 3078 3084 3088 3094 3099 3105 3111 3115 3119 3124 3129 3133 3136 3140 3144 3148 3151 3154 3157 3159 3161 3164 3166 3167 3168 3169 3170 3171 3171 3171 3171 3171 3170 3170
3018 3025 3029 3036 3042 3049 3056 3063 3069 3073 3075 3083 3088 3095 3102 3107 3111 3115 3119 3123 3128 3132 3135 3140 3144 3148 3151 3154 3156 3159 3161 3163 3165 3166 3167 3168 3169 3169 3169 3169 3168 3168 3167
3008 3015 3018 3026 3034 3039 3046 3054 3061 3064 3070 3076 3082 3086 3091 3098 3103 3106 3111 3117 3123 3128 3133 3137 3141 3145 3148 3151 3154 3156 3159 3161 3162 3164 3165 3165 3166 3166 3166 3166 3166 3165 3163
3001 3008 3010 3016 3025 3031 3038 3047 3054 3058 3061 3067 3073 3079 3086 3095 3102 3106 3110 3114 3119 3122 3127 3133 3137 3141 3145 3148 3151 3153 3156 3158 3159 3160 3162 3162 3163 3163 3163 3163 3162 3161 3159
2994 2999 3003 3009 3018 3025 3030 3037 3046 3052 3056 3061 3066 3072 3081 3083 3095 3101 3104 3108 3114 3118 3123 3128 3133 3137 3141 3144 3147 3150 3152 3155 3156 3157 3158 3159 3159 3159 3159 3158 3158 3157 3156
2986 2993 2997 3004 3010 3018 3024 3029 3036 3042 3048 3052 3057 3065 3069 3081 3088 3093 3097 3102 3108 3114 3119 3124 3128 3133 3137 3141 3144 3146 3149 3151 3152 3154 3154 3155 3155 3155 3155 3154 3153 3152 3151
2977 2983 2989 2996 3002 3007 3014 3021 3027 3034 3040 3046 3051 3058 3066 3074 3082 3085 3092 3098 3104 3108 3114 3119 3124 3129 3133 3137 3140 3143 3145 3147 3148 3149 3149 3150 3150 3150 3150 3149 3149 3148 3147
2967 2974 2981 2987 2994 3000 3006 3014 3019 3026 3032 3036 3044 3052 3062 3068 3074 3081 3087 3093 3098 3105 3111 3116 3120 3124 3128 3132 3136 3139 3141 3142 3144 3144 3145 3145 3145 3146 3145 3145 3144 3143 3142
2961 2968 2975 2980 2987 2992 2998 3005 3013 3019 3025 3031 3037 3044 3053 3061 3067 3072 3079 3084 3090 3096 3104 3110 3115 3119 3123 3127 3131 3134 3137 3138 3139 3140 3140 3141 3141 3140 3140 3140 3139 3138 3136
2956 2962 2969 2972 2979 2985 2993 2998 3006 3014 3021 3024 3031 3039 3047 3054 3060 3063 3070 3078 3083 3087 3094 3102 3109 3113 3117 3122 3125 3129 3131 3133 3134 3135 3135 3136 3136 3135 3134 3133 3133 3132 3130
2952 2958 2963 2967 2973 2980 2986 2991 2999 3006 3013 3018 3025 3032 3040 3046 3052 3058 3065 3071 3077 3082 3087 3094 3102 3107 3111 3115 3120 3123 3126 3128 3129 3131 3130 3131 3131 3130 3129 3127 3127 3125 3123
2947 2951 2956 2959 2966 2973 2978 2984 2993 3000 3006 3012 3018 3024 3032 3038 3045 3051 3058 3066 3070 3075 3082 3088 3095 3101 3106 3109 3113 3118 3120 3123 3124 3125 3125 3125 3125 3124 3123 3121 3120 3118 3115
2943 2948 2952 2954 2960 2967 2972 2978 2985 2993 3000 3006 3011 3016 3024 3030 3036 3043 3050 3053 3060 3066 3074 3081 3088 3094 3100 3104 3107 3110 3113 3116 3119 3119 3119 3119 3119 3118 3117 3115 3114 3111 3108
2940 2944 2948 2950 2955 2961 2966 2971 2979 2985 2993 2999 3004 3010 3018 3024 3029 3034 3040 3048 3053 3061 3066 3073 3081 3087 3093 3096 3100 3104 3107 3110 3112 3114 3114 3113 3112 3111 3110 3108 3107 3104 3100
2939 2941 2945 2948 2949 2955 2961 2965 2972 2979 2986 2992 2997 3003 3012 3019 3023 3027 3034 3041 3047 3052 3060 3067 3073 3079 3085 3090 3094 3098 3102 3103 3105 3107 3107 3108 3107 3105 3104 3102 3100 3097 3093
2936 2938 2941 2943 2946 2950 2955 2961 2966 2972 2979 2985 2991 2998 3005 3011 3015 3020 3026 3034 3039 3047 3055 3062 3069 3074 3079 3084 3088 3092 3095 3097 3097 3099 3101 3101 3100 3099 3098 3095 3093 3090 3086
2935 2936 2938 2939 2940 2944 2950 2956 2963 2968 2973 2979 2984 2990 2997 3003 3008 3013 3020 3024 3032 3043 3051 3056 3062 3069 3074 3080 3083 3086 3090 3092 3092 3094 3093 3094 3093 3093 3091 3088 3085 3081 3076
2933 2935 2936 2935 2936 2940 2947 2953 2958 2964 2968 2972 2978 2984 2991 2996 3002 3007 3013 3018 3027 3037 3043 3051 3058 3064 3069 3075 3078 3080 3083 3086 3087 3087 3087 3087 3088 3085 3083 3080 3078 3073 3069
2931 2933 2934 2933 2936 2939 2944 2948 2954 2960 2963 2967 2972 2979 2984 2989 2994 2998 3005 3012 3019 3028 3035 3041 3050 3055 3062 3067 3071 3074 3077 3079 3081 3082 3080 3080 3080 3078 3077 3074 3070 3066 3062
2929 2931 2932 2933 2935 2938 2940 2945 2947 2954 2959 2963 2968 2973 2979 2985 2988 2992 2998 3003 3014 3023 3027 3032 3039 3046 3054 3059 3063 3066 3070 3073 3076 3076 3074 3073 3072 3071 3069 3066 3063 3059 3054
2927 2928 2930 2932 2934 2936 2938 2940 2940 2948 2953 2959 2963 2968 2974 2979 2983 2989 2995 2998 3007 3012 3019 3026 3034 3039 3044 3050 3055 3058 3062 3066 3066 3067 3067 3067 3066 3063 3061 3058 3055 3050 3046
2925 2926 2927 2930 2931 2932 2934 2937 2941 2945 2950 2955 2959 2964 2969 2975 2980 2985 2989 2993 3000 3006 3013 3017 3024 3030 3037 3044 3050 3055 3058 3059 3061 3062 3061 3061 3058 3055 3053 3050 3047 3042 3038
2921 2922 2924 2926 2928 2928 2931 2934 2937 2942 2946 2950 2955 2960 2965 2971 2976 2979 2984 2988 2992 3000 3006 3013 3020 3027 3034 3041 3048 3051 3054 3055 3055 3056 3055 3053 3051 3048 3046 3043 3040 3036 3031
2918 2919 2921 2922 2924 2925 2927 2929 2932 2937 2942 2946 2951 2955 2961 2965 2969 2973 2978 2984 2989 2993 3001 3008 3016 3025 3033 3039 3044 3047 3048 3049 3049 3049 3048 3046 3045 3043 3040 3038 3035 3030 3023
2915 2916 2918 2918 2918 2920 2922 2925 2929 2932 2936 2941 2946 2950 2955 2961 2965 2970 2975 2981 2988 2995 3000 3007 3016 3024 3031 3036 3040 3042 3043 3043 3043 3043 3042 3041 3039 3037 3035 3033 3027 3022 3017
2913 2914 2913 2914 2914 2916 2918 2921 2925 2928 2932 2937 2942 2947 2952 2957 2962 2968 2973 2981 2989 2996 3004 3011 3017 3023 3028 3032 3034 3037 3037 3039 3040 3039 3038 3036 3034 3033 3032 3026 3021 3017 3013